This is the latest recevied weather packets stored in our database for station/object N8XE-13. If no packets are shown the sender has not sent any weather packets the latest 10 day(s).
| Time | Temp. | Humidity | Pressure | Rain* | Wind** | Luminosity | Snow |
|---|---|---|---|---|---|---|---|
| 1778169807 | 12.78° C | 47% | - | 0 mm | - | - | - |
| 1778169503 | 12.78° C | 49% | - | 0 mm | - | - | - |
| 1778169200 | 12.22° C | 47% | - | 0 mm | - | - | - |
| 1778168896 | 12.22° C | 49% | - | 0 mm | - | - | - |
| 1778168594 | 12.22° C | 48% | - | 0 mm | - | - | - |
| 1778168290 | 12.22° C | 47% | - | 0 mm | - | - | - |
| 1778167987 | 12.22° C | 49% | - | 0 mm | - | - | - |
| 1778167683 | 11.11° C | 49% | - | 0 mm | - | - | - |
| 1778167380 | 11.67° C | 51% | - | 0 mm | - | - | - |
| 1778167075 | 11.67° C | 47% | - | 0 mm | - | - | - |
| 1778166772 | 11.11° C | 50% | - | 0 mm | - | - | - |
| 1778166469 | 11.11° C | 51% | - | 0 mm | - | - | - |
| 1778166166 | 11.67° C | 51% | - | 0 mm | - | - | - |
| 1778165862 | 11.11° C | 52% | - | 0 mm | - | - | - |
| 1778165558 | 10.56° C | 54% | - | 0 mm | - | - | - |
| 1778165256 | 11.11° C | 52% | - | 0 mm | - | - | - |
| 1778164953 | 11.67° C | 53% | - | 0 mm | - | - | - |
| 1778164649 | 11.67° C | 53% | - | 0 mm | - | - | - |
| 1778164347 | 10.56° C | 52% | - | 0 mm | - | - | - |
| 1778164043 | 10.56° C | 52% | - | 0 mm | - | - | - |
| 1778163739 | 10.56° C | 52% | - | 0 mm | - | - | - |
| 1778163435 | 11.11° C | 53% | - | 0 mm | - | - | - |
| 1778163133 | 10.56° C | 53% | - | 0 mm | - | - | - |
| 1778162829 | 10° C | 55% | - | 0 mm | - | - | - |
| 1778162527 | 10° C | 55% | - | 0 mm | - | - | - |
* Rain latest hour (hover to see other rain measurements)
** Current wind speed in m/s (hover to see current wind gust speed)